sat.trackr.live / text

‹ back to catalog

JILIN-01 KUANFU 02B 2

NORAD 61190 · 2024-169B

PAYLOAD ACTIVE UNKNOWN

§ Identity

Operator
Country
PRC
Launch date
2024-09-20
Launch site
TAISC
Launch vehicle
Mass (kg)
RCS (m²)

External: N2YO · Heavens-Above · Gunter

§ Orbital elements

Epoch: 2026-05-25T05:09:02.984832Z

Period
95.45 min
Inclination
97.5552°
Eccentricity
0.0008075
Mean motion
15.08652770 rev/d
Perigee alt
534.7 km
Apogee alt
545.9 km
Semi-major
6,918.5 km
B*
2.0868e-4
RAAN
234.4789°
Arg perigee
95.2384°
Mean anomaly
264.9766°
Rev number
9,236

§ Raw data

JILIN-01 KUANFU 02B 21 61190U 24169B   26145.21461788  .00003207  00000+0  20868-3 0  99922 61190  97.5552 234.4789 0008075  95.2384 264.9766 15.08652770 92361

JSON: /api/v1/satellites/61190 · /tle

For live sub-satellite position, see the globe view (requires WebGL).

§ Visibility from observer

Set your observer location to see the next 7 days of passes ≥ 10°. The values pass through the URL so the page stays shareable.

No JS? Fill the form by hand. The geolocation button needs JavaScript.